Regional Weather Roundup
Issued by NWS Grand Forks, ND

Home | Current Version | Previous Version | Text Only | Print | Product List | Glossary Off
Versions: 1 2 3 4 5 6 7 8 9 10 11 12 13 14 15 16 17 18 19 20 21 22 23 24 25 26 27 28 29 30 31 32 33 34 35 36 37 38 39 40 41 42 43 44 45 46 47 48 49 50

853
ASUS43 KFGF 061910
RWRFGF
PRAIRIE TO PINES  WEATHER ROUNDUP
NATIONAL WEATHER SERVICE EASTERN NORTH DAKOTA/GRAND FORKS ND
100 PM CST SAT FEB 06 2016

 **SATELLITE DATA USED TO AUGMENT SKY COVER AT AUTOMATED STATIONS**
 *****  WEATHER ACROSS EASTERN NORTH DAKOTA  *****

CITY           SKY/WX    TMP DP  RH WIND       PRES   REMARKS
GRAND FORKS    PTSUNNY   36  29  75 S13       29.68F
GRAND FRKS AFB MOSUNNY   38  29  69 SW8       29.67F
GRAND FRKS NWS   N/A     34 N/A N/A S10         N/A
DEVILS LAKE    CLOUDY    38  31  76 SW12      29.64F
FARGO          MOSUNNY   37  28  70 S14       29.75F
WAHPETON ARPT  PTCLDY    37  28  70 S9        29.79F
$$

 ***** WEATHER ACROSS CENTRAL AND WESTERN NORTH DAKOTA  *****

CITY           SKY/WX    TMP DP  RH WIND       PRES   REMARKS
BISMARCK       LGT RAIN  47  29  49 SW10      29.74F
MINOT          CLOUDY    51  26  37 SW23G29   29.61F
JAMESTOWN      CLOUDY    40  31  70 SW16      29.69F
MINOT AFB      CLOUDY    51  29  42 W21G32    29.59F
GARRISON         N/A     46  27  47 W17       29.66F
WILLISTON      CLOUDY    47  28  47 W20G28    29.66F
DICKINSON      CLOUDY    48  22  35 W24G31    29.72F
HETTINGER      CLOUDY    49  20  31 W24G30    29.81F
$$

 *****  OTHER AIRPORT OBSERVATIONS IN OUR AREA  *****

CITY           SKY/WX    TMP DP  RH WIND       PRES   REMARKS
WALHALLA       FAIR      36  32  87 S6        29.62F
GRAFTON AIRPOR FAIR      34  30  86 S13       29.67F WCI  25
VALLEY CITY AR LGT RAIN  39  32  75 W15G23    29.74F
CANDO          NOT AVBL
CAVALIER APRT  FAIR      28  27  93 SE10      29.63F WCI  19
GWINNER        FAIR      39  32  75 SW17      29.77F
SHEYENNE NWR     N/A     40  29  64 SW12      29.95S
ROLLA          FAIR      34  28  80 SW13      29.58F WCI  25
 ***** THE ABOVE OBSERVATIONS ARE NON NWS ARE NOT QUALITY
       CONTROLLED AND MAY MIS-REPORT RAIN FOR SNOW...
$$

  *****  WEATHER ACROSS NORTHERN MINNESOTA  *****

CITY           SKY/WX    TMP DP  RH WIND       PRES   REMARKS
FLAG ISLAND    CLOUDY    27  19  74 SE8       29.73F WCI  18
WARROAD        CLOUDY    30  25  80 CALM      29.72F
ROSEAU         CLOUDY    30  25  80 SE14      29.70F WCI  20
HALLOCK        CLOUDY    30  27  86 S17       29.68F WCI  18
THF RVR FALLS  CLOUDY    30  25  80 S13       29.73F WCI  20
BAUDETTE       CLOUDY    31  21  66 S13       29.73F WCI  21
WASKISH        CLOUDY    36  25  64 SE6       29.75F
CROOKSTON      MOSUNNY   32  27  80 S16       29.73F WCI  21
STEPHEN NDAWN    N/A     30  27  86 S14         N/A  WCI  20
GREENBUSH NDAW   N/A     30  27  86 S9          N/A  WCI  22
$$
  *****  WEATHER ACROSS CENTRAL AND WEST MINNESOTA  *****

CITY           SKY/WX    TMP DP  RH WIND       PRES   REMARKS
FOSSTON        CLOUDY    30  25  80 S15G23    29.74F WCI  19
BEMIDJI        CLOUDY    32  25  74 SE9       29.75F WCI  24
PARK RAPIDS    CLOUDY    36  25  64 S12       29.77F
ELBOW LAKE     FAIR      35  28  76 SW14      29.83F HAZE
WADENA         CLOUDY    36  25  64 S14       29.80F
DETROIT LAKES  CLOUDY    36  27  69 SW10G21   29.78F
MOORHEAD       MOSUNNY   36  28  75 S12       29.77F
FERGUS FALLS   CLOUDY    36  28  75 S12       29.83F
MORRIS MN      CLOUDY    37  28  70 S14       29.83F
STAPLES        CLOUDY    36  25  64 S10       29.82F
$$
  *****  WEATHER ELSEWHERE ACROSS MINNESOTA  *****

CITY           SKY/WX    TMP DP  RH WIND       PRES   REMARKS
DULUTH         CLOUDY    30  22  72 S12       29.87F WCI  20
INTRNTL FALLS  CLOUDY    28  20  71 SE9       29.78F WCI  19
ELY            CLOUDY    28  19  69 S5        29.84F WCI  23
CLOQUET        CLOUDY    30  23  74 S13       29.88F WCI  20
WHEATON        CLOUDY    39  30  70 SW10      29.83F
BRAINERD       CLOUDY    33  23  66 S15       29.86F WCI  23
HIBBING        CLOUDY    29  21  72 S9        29.83F WCI  20
ALEXANDRIA     CLOUDY    37  24  59 SW17G25   29.84F
SAINT CLOUD    MOSUNNY   33  24  69 S13G23    29.91F WCI  24
MINNEAPOLIS    CLOUDY    35  25  66 S15G21    30.01F
$$

  *****  WEATHER ACROSS SOUTH DAKOTA  *****

CITY           SKY/WX    TMP DP  RH WIND       PRES   REMARKS
SIOUX FALLS    PTSUNNY   32  23  69 SW13      29.99F WCI  22
BROOKINGS      MOSUNNY   36  25  64 S17       29.91F
WATERTOWN      MOSUNNY   35  24  64 S16       29.86F
HURON          CLOUDY    38  28  67 S12       29.90F
SISSETON         N/A     39  26  59 W24G31    29.78F
ABERDEEN       CLOUDY    43  28  55 SW17      29.83F
MITCHELL       MOSUNNY   39  29  67 S10       29.96F
PIERRE         CLOUDY    44  25  47 W9        29.88F
MOBRIDGE       CLOUDY    51  27  39 SW13      29.78F
RAPID CITY     CLOUDY    45  28  51 S6        29.89F
$$

  *****  SOME WEATHER IN NEARBY STATES *****

CITY           SKY/WX    TMP DP  RH WIND       PRES   REMARKS
GLASGOW MT     SUNNY     43  29  57 W25G32    29.74S
GREAT FALLS MT SUNNY     41  20  43 W46G56    29.97R
CHEYENNE WY    CLOUDY    38  19  46 W24G38    30.12F
SCOTTSBLUFF NE CLOUDY    41  24  51 W22G30    30.07F
OMAHA NE       MOSUNNY   38  27  64 SW13      30.17F
DES MOINES IA  CLOUDY    33  28  81 SW10      30.20F WCI  25
DAVENPORT IA   SUNNY     39  29  67 W9        30.19F
CHICAGO IL     MOSUNNY   36  27  69 W13       30.18F
EAU CLAIRE WI  CLOUDY    31  21  66 S12       30.06F WCI  22
LA CROSSE WI   SUNNY     32  23  69 S10       30.13F WCI  24
$$

  *****  SOME NATIONAL WEATHER *****

CITY           SKY/WX    TMP DP  RH WIND       PRES   REMARKS
LA GUARDIA NY  PTSUNNY   40  21  46 SW9       30.33F
RALEIGH NC     MOSUNNY   47  19  33 W9        30.34F
ATLANTA GA     PTSUNNY   50  17  27 N9        30.28F
NEW ORLEANS LA MOSUNNY   56  25  30 NE12      30.29F
OKLAHOMA CITY  MOSUNNY   49  29  46 NW9       30.37F
ALBUQUERQUE NM SUNNY     43   8  23 NW13      30.45F
SALT LAKE CITY MOSUNNY   34  21  59 SE9       30.52F
LOS ANGELES CA SUNNY     72  20  14 NW3       30.27F
BOISE ID       CLOUDY    40  31  70 NW6       30.47R
SEATTLE WA     CLOUDY    47  39  74 S10       30.47R
$$

*** WEATHER ACROSS MANITOBA...SASKATCHEWAN AND ONTARIO ***
                ***ONTARIO***

CITY           SKY/WX    TMP DP  RH WIND       PRES   REMARKS
GERALDTON      MOSUNNY    7  -8  51 W6        29.98F WCI  -3
THUNDER BAY    FLURRIES  23  18  80 E10       29.97F WCI  12
SIOUX LOOKOUT  FLURRIES  16  10  79 SE7       29.86F WCI   6
TORONTO        PTSUNNY   37  18  44 SW21G28   30.13F
BIG TROUT LK   SUNNY    -17 -24  70 SE3       30.07F
PICKLE LAKE    MOSUNNY    0 -13  55 E7        29.94F WCI -13
DRYDEN         FLURRIES  21  16  79 E9        29.80F WCI  11
KENORA         PTSUNNY   23  19  86 E13       29.72F WCI  11
$$
                *** MANITOBA***

CITY           SKY/WX    TMP DP  RH WIND       PRES   REMARKS
BRANDON        CLOUDY    34  30  86 SW3       29.52F
DAUPHIN        FLURRIES  27  23  86 SE12      29.49F WCI  16
ISLAND LAKE    PTSUNNY   -4 -11  71 E6G17     29.89F WCI -16
PILOT MOUND      N/A     34  30  86 SW10        N/A
THE PAS        FLURRIES  14  10  85 SE16G23   29.50F WCI  -2
THOMPSON       FLURRIES  -6 -17  59 E7        29.80F WCI -20
WINNIPEG       CLOUDY    27  21  80 S15       29.65F WCI  15
LYNN LAKE      LGT SNOW  -4  -8  84 SE16G25   29.59F WCI -25
CHURCHILL      MOSUNNY  -26 -33  68 S6        30.13F WCI -42
GILLAM         PTSUNNY  -15 -26  58 SE7       30.01F WCI -31
$$
                ***SASKATCHEWAN***

CITY           SKY/WX    TMP DP  RH WIND       PRES   REMARKS
ESTEVAN        CLOUDY    41  30  65 SW13      29.58F
KINDERSLEY     PTSUNNY   39  27  60 NW21G29   29.58R
LLOYDMINSTER   PTSUNNY   39  25  56 W32G44    29.50R
PRINCE ALBERT  PTSUNNY   25  21  86 CALM      29.35R
REGINA         MOSUNNY   43  30  61 W24G36    29.48S
YORKTON        SUNNY     41  30  65 SW12G17   29.40F
N. BATTLEFORD  PTSUNNY   39  30  70 NW20G30   29.49R
LA RONGE       FLURRIES  18  14  86 E10       29.38F WCI   6
SASKATOON      PTSUNNY   39  28  65 NW28G35   29.40S
SWIFT CURRENT  LGT RAIN  36  34  93 W28G41    29.58R
$$
NOTE: THESE ARE AUTOMATED STATIONS WITH LIMITED QUALITY CONTROL
      "FAIR" INDICATES FEW OR NO CLOUDS BELOW 12,000 FEET WITH NO
      SIGNIFICANT WEATHER AND/OR OBSTRUCTIONS TO VISIBILITY.
      SKY/WX - SKY CONDITION AND SIGNIFICANT WEATHER.
      TMP - AIR TEMPERATURE.    DP   - DEWPOINT TEMPERATURE.
      RH  - RELATIVE HUMIDITY.  PRES - PRESSURE.
      HX  - HEAT INDEX.         WCI  - WIND CHILL INDEX.
$




USA.gov is the U.S. government's official web portal to all federal, state and local government web resources and services.